owner,sensor,date,latitude,longitude,sea_water_turbidity,qcFlag 
SCCF RECON,ioos:station:SCCF:16:1,2011-03-01T00:00:00Z,26.4345,-81.9647,9.96,1111122 
SCCF RECON,ioos:station:SCCF:16:1,2011-03-01T01:00:00Z,26.4345,-81.9647,12.39,1111122 
SCCF RECON,ioos:station:SCCF:16:1,2011-03-01T02:00:00Z,26.4345,-81.9647,13.44,1111122 
SCCF RECON,ioos:station:SCCF:16:1,2011-03-01T03:00:00Z,26.4345,-81.9647,9.94,1111122 
SCCF RECON,ioos:station:SCCF:16:1,2011-03-01T04:00:00Z,26.4345,-81.9647,8.87,1111122 
SCCF RECON,ioos:station:SCCF:16:1,2011-03-01T05:00:00Z,26.4345,-81.9647,7.29,1111122 
SCCF RECON,ioos:station:SCCF:16:1,2011-03-01T06:00:00Z,26.4345,-81.9647,7.8,1111122 
SCCF RECON,ioos:station:SCCF:16:1,2011-03-01T07:00:00Z,26.4345,-81.9647,6.08,1111122 
SCCF RECON,ioos:station:SCCF:16:1,2011-03-01T08:00:00Z,26.4345,-81.9647,6.77,1111122 
SCCF RECON,ioos:station:SCCF:16:1,2011-03-01T09:00:00Z,26.4345,-81.9647,9.13,1111122 
SCCF RECON,ioos:station:SCCF:16:1,2011-03-01T10:00:00Z,26.4345,-81.9647,8.53,1111122 
SCCF RECON,ioos:station:SCCF:16:1,2011-03-01T11:00:00Z,26.4345,-81.9647,7.03,1111122 
SCCF RECON,ioos:station:SCCF:16:1,2011-03-01T12:00:00Z,26.4345,-81.9647,6.47,1111122 
SCCF RECON,ioos:station:SCCF:16:1,2011-03-01T13:00:00Z,26.4345,-81.9647,6.1,1111122 
SCCF RECON,ioos:station:SCCF:16:1,2011-03-01T14:00:00Z,26.4345,-81.9647,6.63,1111122 
SCCF RECON,ioos:station:SCCF:16:1,2011-03-01T15:00:00Z,26.4345,-81.9647,6.64,1111122 
SCCF RECON,ioos:station:SCCF:16:1,2011-03-01T16:00:00Z,26.4345,-81.9647,7.64,1111122 
SCCF RECON,ioos:station:SCCF:16:1,2011-03-01T17:00:00Z,26.4345,-81.9647,10.05,1111122 
SCCF RECON,ioos:station:SCCF:16:1,2011-03-01T18:00:00Z,26.4345,-81.9647,6.17,1111122 
SCCF RECON,ioos:station:SCCF:16:1,2011-03-01T19:00:00Z,26.4345,-81.9647,5.83,1111122 
SCCF RECON,ioos:station:SCCF:16:1,2011-03-01T20:00:00Z,26.4345,-81.9647,5.71,1111122 
SCCF RECON,ioos:station:SCCF:16:1,2011-03-01T21:00:00Z,26.4345,-81.9647,8.29,1111122 
SCCF RECON,ioos:station:SCCF:16:1,2011-03-01T22:00:00Z,26.4345,-81.9647,9.33,1111122 
SCCF RECON,ioos:station:SCCF:16:1,2011-03-01T23:00:00Z,26.4345,-81.9647,5.6,1111122 
SCCF RECON,ioos:station:SCCF:16:1,2011-03-02T00:00:00Z,26.4345,-81.9647,5.88,1111122 
SCCF RECON,ioos:station:SCCF:16:1,2011-03-02T01:00:00Z,26.4345,-81.9647,7.6,1111122 
SCCF RECON,ioos:station:SCCF:16:1,2011-03-02T02:00:00Z,26.4345,-81.9647,10.8,1111122 
SCCF RECON,ioos:station:SCCF:16:1,2011-03-02T03:00:00Z,26.4345,-81.9647,9.81,1111122 
SCCF RECON,ioos:station:SCCF:16:1,2011-03-02T04:00:00Z,26.4345,-81.9647,9.39,1111122 
SCCF RECON,ioos:station:SCCF:16:1,2011-03-02T05:00:00Z,26.4345,-81.9647,9.08,1111122 
SCCF RECON,ioos:station:SCCF:16:1,2011-03-02T06:00:00Z,26.4345,-81.9647,8.57,1111122 
SCCF RECON,ioos:station:SCCF:16:1,2011-03-02T07:00:00Z,26.4345,-81.9647,7.15,1111122 
SCCF RECON,ioos:station:SCCF:16:1,2011-03-02T08:00:00Z,26.4345,-81.9647,6.23,1111122 
SCCF RECON,ioos:station:SCCF:16:1,2011-03-02T09:00:00Z,26.4345,-81.9647,8.09,1111122 
SCCF RECON,ioos:station:SCCF:16:1,2011-03-02T10:00:00Z,26.4345,-81.9647,8.94,1111122 
SCCF RECON,ioos:station:SCCF:16:1,2011-03-02T11:00:00Z,26.4345,-81.9647,8.32,1111122 
SCCF RECON,ioos:station:SCCF:16:1,2011-03-02T12:00:00Z,26.4345,-81.9647,7.41,1111122 
SCCF RECON,ioos:station:SCCF:16:1,2011-03-02T13:00:00Z,26.4345,-81.9647,5.73,1111122 
SCCF RECON,ioos:station:SCCF:16:1,2011-03-02T14:00:00Z,26.4345,-81.9647,5.14,1111122 
SCCF RECON,ioos:station:SCCF:16:1,2011-03-02T15:00:00Z,26.4345,-81.9647,5.64,1111122 
SCCF RECON,ioos:station:SCCF:16:1,2011-03-02T16:00:00Z,26.4345,-81.9647,5.52,1111122 
SCCF RECON,ioos:station:SCCF:16:1,2011-03-02T17:00:00Z,26.4345,-81.9647,5.76,1111122 
SCCF RECON,ioos:station:SCCF:16:1,2011-03-02T18:00:00Z,26.4345,-81.9647,8.25,1111122 
SCCF RECON,ioos:station:SCCF:16:1,2011-03-02T19:00:00Z,26.4345,-81.9647,6.37,1111122 
SCCF RECON,ioos:station:SCCF:16:1,2011-03-02T20:00:00Z,26.4345,-81.9647,8.46,1111122 
SCCF RECON,ioos:station:SCCF:16:1,2011-03-02T21:00:00Z,26.4345,-81.9647,5.92,1111122 
SCCF RECON,ioos:station:SCCF:16:1,2011-03-02T22:00:00Z,26.4345,-81.9647,6.04,1111122 
SCCF RECON,ioos:station:SCCF:16:1,2011-03-02T23:00:00Z,26.4345,-81.9647,12.51,1111122 
SCCF RECON,ioos:station:SCCF:16:1,2011-03-03T00:00:00Z,26.4345,-81.9647,5.88,1111122 
SCCF RECON,ioos:station:SCCF:16:1,2011-03-03T01:00:00Z,26.4345,-81.9647,5.84,1111122 
SCCF RECON,ioos:station:SCCF:16:1,2011-03-03T02:00:00Z,26.4345,-81.9647,7.76,1111122 
SCCF RECON,ioos:station:SCCF:16:1,2011-03-03T03:00:00Z,26.4345,-81.9647,8.54,1111122 
SCCF RECON,ioos:station:SCCF:16:1,2011-03-03T04:00:00Z,26.4345,-81.9647,10.21,1111122 
SCCF RECON,ioos:station:SCCF:16:1,2011-03-03T05:00:00Z,26.4345,-81.9647,9.32,1111122 
SCCF RECON,ioos:station:SCCF:16:1,2011-03-03T06:00:00Z,26.4345,-81.9647,10.62,1111122 
SCCF RECON,ioos:station:SCCF:16:1,2011-03-03T07:00:00Z,26.4345,-81.9647,9.25,1111122 
SCCF RECON,ioos:station:SCCF:16:1,2011-03-03T08:00:00Z,26.4345,-81.9647,7.95,1111122 
SCCF RECON,ioos:station:SCCF:16:1,2011-03-03T09:00:00Z,26.4345,-81.9647,7.24,1111122 
SCCF RECON,ioos:station:SCCF:16:1,2011-03-03T10:00:00Z,26.4345,-81.9647,6.69,1111122 
SCCF RECON,ioos:station:SCCF:16:1,2011-03-03T11:00:00Z,26.4345,-81.9647,6.96,1111122 
SCCF RECON,ioos:station:SCCF:16:1,2011-03-03T12:00:00Z,26.4345,-81.9647,6.34,1111122 
SCCF RECON,ioos:station:SCCF:16:1,2011-03-03T13:00:00Z,26.4345,-81.9647,9.03,1111122 
SCCF RECON,ioos:station:SCCF:16:1,2011-03-03T14:00:00Z,26.4345,-81.9647,7.23,1111122 
SCCF RECON,ioos:station:SCCF:16:1,2011-03-03T15:00:00Z,26.4345,-81.9647,8.49,1111122 
SCCF RECON,ioos:station:SCCF:16:1,2011-03-03T16:00:00Z,26.4345,-81.9647,9.3,1111122 
SCCF RECON,ioos:station:SCCF:16:1,2011-03-03T17:00:00Z,26.4345,-81.9647,9.69,1111122 
SCCF RECON,ioos:station:SCCF:16:1,2011-03-03T18:00:00Z,26.4345,-81.9647,8.49,1111122 
SCCF RECON,ioos:station:SCCF:16:1,2011-03-03T19:00:00Z,26.4345,-81.9647,10.25,1111122 
SCCF RECON,ioos:station:SCCF:16:1,2011-03-03T20:00:00Z,26.4345,-81.9647,9.62,1111122 
SCCF RECON,ioos:station:SCCF:16:1,2011-03-03T21:00:00Z,26.4345,-81.9647,7.89,1111122 
SCCF RECON,ioos:station:SCCF:16:1,2011-03-03T22:00:00Z,26.4345,-81.9647,7.1,1111122 
SCCF RECON,ioos:station:SCCF:16:1,2011-03-03T23:00:00Z,26.4345,-81.9647,6.82,1111122 
SCCF RECON,ioos:station:SCCF:16:1,2011-03-04T00:00:00Z,26.4345,-81.9647,6.75,1111122 
SCCF RECON,ioos:station:SCCF:16:1,2011-03-04T01:00:00Z,26.4345,-81.9647,6.96,1111122 
SCCF RECON,ioos:station:SCCF:16:1,2011-03-04T02:00:00Z,26.4345,-81.9647,9.17,1111122 
SCCF RECON,ioos:station:SCCF:16:1,2011-03-04T03:00:00Z,26.4345,-81.9647,9.54,1111122 
SCCF RECON,ioos:station:SCCF:16:1,2011-03-04T04:00:00Z,26.4345,-81.9647,9.57,1111122 
SCCF RECON,ioos:station:SCCF:16:1,2011-03-04T05:00:00Z,26.4345,-81.9647,8.17,1111122 
SCCF RECON,ioos:station:SCCF:16:1,2011-03-04T06:00:00Z,26.4345,-81.9647,7.3,1111122 
SCCF RECON,ioos:station:SCCF:16:1,2011-03-04T07:00:00Z,26.4345,-81.9647,7.29,1111122 
SCCF RECON,ioos:station:SCCF:16:1,2011-03-04T08:00:00Z,26.4345,-81.9647,6.7,1111122 
SCCF RECON,ioos:station:SCCF:16:1,2011-03-04T09:00:00Z,26.4345,-81.9647,6.28,1111122 
SCCF RECON,ioos:station:SCCF:16:1,2011-03-04T10:00:00Z,26.4345,-81.9647,7.1,1111122 
SCCF RECON,ioos:station:SCCF:16:1,2011-03-04T11:00:00Z,26.4345,-81.9647,8.08,1111122 
SCCF RECON,ioos:station:SCCF:16:1,2011-03-04T12:00:00Z,26.4345,-81.9647,8.57,1111122 
SCCF RECON,ioos:station:SCCF:16:1,2011-03-04T13:00:00Z,26.4345,-81.9647,7.54,1111122 
SCCF RECON,ioos:station:SCCF:16:1,2011-03-04T14:00:00Z,26.4345,-81.9647,7.61,1111122 
SCCF RECON,ioos:station:SCCF:16:1,2011-03-04T15:00:00Z,26.4345,-81.9647,7.18,1111122 
SCCF RECON,ioos:station:SCCF:16:1,2011-03-04T16:00:00Z,26.4345,-81.9647,6.41,1111122 
SCCF RECON,ioos:station:SCCF:16:1,2011-03-04T17:00:00Z,26.4345,-81.9647,7.8,1111122 
SCCF RECON,ioos:station:SCCF:16:1,2011-03-04T18:00:00Z,26.4345,-81.9647,6.1,1111122 
SCCF RECON,ioos:station:SCCF:16:1,2011-03-04T19:00:00Z,26.4345,-81.9647,7.44,1111122 
SCCF RECON,ioos:station:SCCF:16:1,2011-03-04T20:00:00Z,26.4345,-81.9647,7.67,1111122 
SCCF RECON,ioos:station:SCCF:16:1,2011-03-04T21:00:00Z,26.4345,-81.9647,7.22,1111122 
SCCF RECON,ioos:station:SCCF:16:1,2011-03-04T22:00:00Z,26.4345,-81.9647,6.62,1111122 
SCCF RECON,ioos:station:SCCF:16:1,2011-03-04T23:00:00Z,26.4345,-81.9647,5.93,1111122 
SCCF RECON,ioos:station:SCCF:16:1,2011-03-05T00:00:00Z,26.4345,-81.9647,5.37,1111122 
SCCF RECON,ioos:station:SCCF:16:1,2011-03-05T01:00:00Z,26.4345,-81.9647,4.95,1111122 
SCCF RECON,ioos:station:SCCF:16:1,2011-03-05T02:00:00Z,26.4345,-81.9647,6.48,1111122 
SCCF RECON,ioos:station:SCCF:16:1,2011-03-05T03:00:00Z,26.4345,-81.9647,9.17,1111122 
SCCF RECON,ioos:station:SCCF:16:1,2011-03-05T04:00:00Z,26.4345,-81.9647,9.12,1111122 
SCCF RECON,ioos:station:SCCF:16:1,2011-03-05T05:00:00Z,26.4345,-81.9647,7.74,1111122 
SCCF RECON,ioos:station:SCCF:16:1,2011-03-05T06:00:00Z,26.4345,-81.9647,7.2,1111122 
SCCF RECON,ioos:station:SCCF:16:1,2011-03-05T07:00:00Z,26.4345,-81.9647,6.68,1111122 
SCCF RECON,ioos:station:SCCF:16:1,2011-03-05T08:00:00Z,26.4345,-81.9647,7.07,1111122 
SCCF RECON,ioos:station:SCCF:16:1,2011-03-05T09:00:00Z,26.4345,-81.9647,6.85,1111122 
SCCF RECON,ioos:station:SCCF:16:1,2011-03-05T10:00:00Z,26.4345,-81.9647,6.84,1111122 
SCCF RECON,ioos:station:SCCF:16:1,2011-03-05T11:00:00Z,26.4345,-81.9647,7.8,1111122 
SCCF RECON,ioos:station:SCCF:16:1,2011-03-05T12:00:00Z,26.4345,-81.9647,7.99,1111122 
SCCF RECON,ioos:station:SCCF:16:1,2011-03-05T13:00:00Z,26.4345,-81.9647,7.56,1111122 
SCCF RECON,ioos:station:SCCF:16:1,2011-03-05T14:00:00Z,26.4345,-81.9647,6.64,1111122 
SCCF RECON,ioos:station:SCCF:16:1,2011-03-05T15:00:00Z,26.4345,-81.9647,6.06,1111122 
SCCF RECON,ioos:station:SCCF:16:1,2011-03-05T16:00:00Z,26.4345,-81.9647,7.02,1111122 
SCCF RECON,ioos:station:SCCF:16:1,2011-03-05T17:00:00Z,26.4345,-81.9647,11.94,1111122 
SCCF RECON,ioos:station:SCCF:16:1,2011-03-05T18:00:00Z,26.4345,-81.9647,5.73,1111122 
SCCF RECON,ioos:station:SCCF:16:1,2011-03-05T19:00:00Z,26.4345,-81.9647,6.83,1111122 
SCCF RECON,ioos:station:SCCF:16:1,2011-03-05T20:00:00Z,26.4345,-81.9647,5.83,1111122 
SCCF RECON,ioos:station:SCCF:16:1,2011-03-05T21:00:00Z,26.4345,-81.9647,6.45,1111122 
SCCF RECON,ioos:station:SCCF:16:1,2011-03-05T22:00:00Z,26.4345,-81.9647,6.09,1111122 
SCCF RECON,ioos:station:SCCF:16:1,2011-03-05T23:00:00Z,26.4345,-81.9647,6.33,1111122 
SCCF RECON,ioos:station:SCCF:16:1,2011-03-06T00:00:00Z,26.4345,-81.9647,7.21,1111122 
SCCF RECON,ioos:station:SCCF:16:1,2011-03-06T01:00:00Z,26.4345,-81.9647,6.43,1111122 
SCCF RECON,ioos:station:SCCF:16:1,2011-03-06T02:00:00Z,26.4345,-81.9647,5.12,1111122 
SCCF RECON,ioos:station:SCCF:16:1,2011-03-06T03:00:00Z,26.4345,-81.9647,6.4,1111122 
SCCF RECON,ioos:station:SCCF:16:1,2011-03-06T04:00:00Z,26.4345,-81.9647,6.91,1111122 
SCCF RECON,ioos:station:SCCF:16:1,2011-03-06T05:00:00Z,26.4345,-81.9647,6.84,1111122 
SCCF RECON,ioos:station:SCCF:16:1,2011-03-06T06:00:00Z,26.4345,-81.9647,7.7,1111122 
SCCF RECON,ioos:station:SCCF:16:1,2011-03-06T07:00:00Z,26.4345,-81.9647,8.04,1111122 
SCCF RECON,ioos:station:SCCF:16:1,2011-03-06T08:00:00Z,26.4345,-81.9647,9.17,1111122 
SCCF RECON,ioos:station:SCCF:16:1,2011-03-06T09:00:00Z,26.4345,-81.9647,7.21,1111122 
SCCF RECON,ioos:station:SCCF:16:1,2011-03-06T10:00:00Z,26.4345,-81.9647,7.13,1111122 
SCCF RECON,ioos:station:SCCF:16:1,2011-03-06T11:00:00Z,26.4345,-81.9647,6.93,1111122 
SCCF RECON,ioos:station:SCCF:16:1,2011-03-06T12:00:00Z,26.4345,-81.9647,7.14,1111122 
SCCF RECON,ioos:station:SCCF:16:1,2011-03-06T13:00:00Z,26.4345,-81.9647,7.32,1111122 
SCCF RECON,ioos:station:SCCF:16:1,2011-03-06T14:00:00Z,26.4345,-81.9647,6.46,1111122 
SCCF RECON,ioos:station:SCCF:16:1,2011-03-06T15:00:00Z,26.4345,-81.9647,6.5,1111122 
SCCF RECON,ioos:station:SCCF:16:1,2011-03-06T16:00:00Z,26.4345,-81.9647,9.07,1111122 
SCCF RECON,ioos:station:SCCF:16:1,2011-03-06T17:00:00Z,26.4345,-81.9647,6.37,1111122 
SCCF RECON,ioos:station:SCCF:16:1,2011-03-06T18:00:00Z,26.4345,-81.9647,9.48,1111122 
SCCF RECON,ioos:station:SCCF:16:1,2011-03-06T19:00:00Z,26.4345,-81.9647,11.74,1111122 
SCCF RECON,ioos:station:SCCF:16:1,2011-03-06T20:00:00Z,26.4345,-81.9647,9.78,1111122 
SCCF RECON,ioos:station:SCCF:16:1,2011-03-06T21:00:00Z,26.4345,-81.9647,11.38,1111122 
SCCF RECON,ioos:station:SCCF:16:1,2011-03-06T22:00:00Z,26.4345,-81.9647,10.57,1111122 
SCCF RECON,ioos:station:SCCF:16:1,2011-03-06T23:00:00Z,26.4345,-81.9647,11.2,1111122 
SCCF RECON,ioos:station:SCCF:16:1,2011-03-07T00:00:00Z,26.4345,-81.9647,11.2,1111122 
SCCF RECON,ioos:station:SCCF:16:1,2011-03-07T01:00:00Z,26.4345,-81.9647,8.16,1111122 
SCCF RECON,ioos:station:SCCF:16:1,2011-03-07T02:00:00Z,26.4345,-81.9647,6.62,1111122 
SCCF RECON,ioos:station:SCCF:16:1,2011-03-07T03:00:00Z,26.4345,-81.9647,6.45,1111122 
SCCF RECON,ioos:station:SCCF:16:1,2011-03-07T04:00:00Z,26.4345,-81.9647,5.87,1111122 
SCCF RECON,ioos:station:SCCF:16:1,2011-03-07T05:00:00Z,26.4345,-81.9647,6.45,1111122 
SCCF RECON,ioos:station:SCCF:16:1,2011-03-07T06:00:00Z,26.4345,-81.9647,6.71,1111122 
SCCF RECON,ioos:station:SCCF:16:1,2011-03-07T07:00:00Z,26.4345,-81.9647,7.21,1111122 
SCCF RECON,ioos:station:SCCF:16:1,2011-03-07T08:00:00Z,26.4345,-81.9647,6.91,1111122 
SCCF RECON,ioos:station:SCCF:16:1,2011-03-07T09:00:00Z,26.4345,-81.9647,6.55,1111122 
SCCF RECON,ioos:station:SCCF:16:1,2011-03-07T10:00:00Z,26.4345,-81.9647,6.19,1111122 
SCCF RECON,ioos:station:SCCF:16:1,2011-03-07T11:00:00Z,26.4345,-81.9647,6.3,1111122 
SCCF RECON,ioos:station:SCCF:16:1,2011-03-07T12:00:00Z,26.4345,-81.9647,8.06,1111122 
SCCF RECON,ioos:station:SCCF:16:1,2011-03-07T13:00:00Z,26.4345,-81.9647,6.74,1111122 
SCCF RECON,ioos:station:SCCF:16:1,2011-03-07T14:00:00Z,26.4345,-81.9647,6.76,1111122 
SCCF RECON,ioos:station:SCCF:16:1,2011-03-07T15:00:00Z,26.4345,-81.9647,7.91,1111122 
SCCF RECON,ioos:station:SCCF:16:1,2011-03-07T16:00:00Z,26.4345,-81.9647,7.47,1111122 
SCCF RECON,ioos:station:SCCF:16:1,2011-03-07T17:00:00Z,26.4345,-81.9647,10.61,1111122 
SCCF RECON,ioos:station:SCCF:16:1,2011-03-07T18:00:00Z,26.4345,-81.9647,9.75,1111122 
SCCF RECON,ioos:station:SCCF:16:1,2011-03-07T19:00:00Z,26.4345,-81.9647,8.29,1111122 
SCCF RECON,ioos:station:SCCF:16:1,2011-03-07T20:00:00Z,26.4345,-81.9647,8.42,1111122 
SCCF RECON,ioos:station:SCCF:16:1,2011-03-07T21:00:00Z,26.4345,-81.9647,8.09,1111122 
SCCF RECON,ioos:station:SCCF:16:1,2011-03-07T22:00:00Z,26.4345,-81.9647,8.11,1111122 
SCCF RECON,ioos:station:SCCF:16:1,2011-03-07T23:00:00Z,26.4345,-81.9647,7.56,1111122 
SCCF RECON,ioos:station:SCCF:16:1,2011-03-08T00:00:00Z,26.4345,-81.9647,8.64,1111122 
SCCF RECON,ioos:station:SCCF:16:1,2011-03-08T01:00:00Z,26.4345,-81.9647,7.28,1111122 
SCCF RECON,ioos:station:SCCF:16:1,2011-03-08T02:00:00Z,26.4345,-81.9647,6.03,1111122 
SCCF RECON,ioos:station:SCCF:16:1,2011-03-08T03:00:00Z,26.4345,-81.9647,6.85,1111122 
SCCF RECON,ioos:station:SCCF:16:1,2011-03-08T04:00:00Z,26.4345,-81.9647,5.95,1111122 
SCCF RECON,ioos:station:SCCF:16:1,2011-03-08T05:00:00Z,26.4345,-81.9647,6.36,1111122 
SCCF RECON,ioos:station:SCCF:16:1,2011-03-08T06:00:00Z,26.4345,-81.9647,7.81,1111122 
SCCF RECON,ioos:station:SCCF:16:1,2011-03-08T07:00:00Z,26.4345,-81.9647,8.38,1111122 
SCCF RECON,ioos:station:SCCF:16:1,2011-03-08T08:00:00Z,26.4345,-81.9647,10.41,1111122 
SCCF RECON,ioos:station:SCCF:16:1,2011-03-08T09:00:00Z,26.4345,-81.9647,9.45,1111122 
SCCF RECON,ioos:station:SCCF:16:1,2011-03-08T10:00:00Z,26.4345,-81.9647,9.63,1111122 
SCCF RECON,ioos:station:SCCF:16:1,2011-03-08T11:00:00Z,26.4345,-81.9647,8.2,1111122 
SCCF RECON,ioos:station:SCCF:16:1,2011-03-08T12:00:00Z,26.4345,-81.9647,7.02,1111122 
SCCF RECON,ioos:station:SCCF:16:1,2011-03-08T13:00:00Z,26.4345,-81.9647,7.1,1111122 
SCCF RECON,ioos:station:SCCF:16:1,2011-03-08T14:00:00Z,26.4345,-81.9647,6.64,1111122 
SCCF RECON,ioos:station:SCCF:16:1,2011-03-08T15:00:00Z,26.4345,-81.9647,6.52,1111122 
SCCF RECON,ioos:station:SCCF:16:1,2011-03-08T16:00:00Z,26.4345,-81.9647,7.38,1111122 
SCCF RECON,ioos:station:SCCF:16:1,2011-03-08T17:00:00Z,26.4345,-81.9647,9.83,1111122 
SCCF RECON,ioos:station:SCCF:16:1,2011-03-08T18:00:00Z,26.4345,-81.9647,12.01,1111122 
SCCF RECON,ioos:station:SCCF:16:1,2011-03-08T19:00:00Z,26.4345,-81.9647,8.59,1111122 
SCCF RECON,ioos:station:SCCF:16:1,2011-03-08T20:00:00Z,26.4345,-81.9647,7.62,1111122 
SCCF RECON,ioos:station:SCCF:16:1,2011-03-08T21:00:00Z,26.4345,-81.9647,6.73,1111122 
SCCF RECON,ioos:station:SCCF:16:1,2011-03-08T22:00:00Z,26.4345,-81.9647,6.98,1111122 
SCCF RECON,ioos:station:SCCF:16:1,2011-03-08T23:00:00Z,26.4345,-81.9647,6.98,1111122 
SCCF RECON,ioos:station:SCCF:16:1,2011-03-09T00:00:00Z,26.4345,-81.9647,8.38,1111122 
SCCF RECON,ioos:station:SCCF:16:1,2011-03-09T01:00:00Z,26.4345,-81.9647,9.13,1111122 
SCCF RECON,ioos:station:SCCF:16:1,2011-03-09T02:00:00Z,26.4345,-81.9647,7.5,1111122 
SCCF RECON,ioos:station:SCCF:16:1,2011-03-09T03:00:00Z,26.4345,-81.9647,6.19,1111122 
SCCF RECON,ioos:station:SCCF:16:1,2011-03-09T04:00:00Z,26.4345,-81.9647,5.59,1111122 
SCCF RECON,ioos:station:SCCF:16:1,2011-03-09T05:00:00Z,26.4345,-81.9647,6.12,1111122 
SCCF RECON,ioos:station:SCCF:16:1,2011-03-09T06:00:00Z,26.4345,-81.9647,7.7,1111122 
SCCF RECON,ioos:station:SCCF:16:1,2011-03-09T07:00:00Z,26.4345,-81.9647,8.37,1111122 
SCCF RECON,ioos:station:SCCF:16:1,2011-03-09T08:00:00Z,26.4345,-81.9647,8.06,1111122 
SCCF RECON,ioos:station:SCCF:16:1,2011-03-09T09:00:00Z,26.4345,-81.9647,8.13,1111122 
SCCF RECON,ioos:station:SCCF:16:1,2011-03-09T10:00:00Z,26.4345,-81.9647,7.86,1111122 
SCCF RECON,ioos:station:SCCF:16:1,2011-03-09T11:00:00Z,26.4345,-81.9647,7.69,1111122 
SCCF RECON,ioos:station:SCCF:16:1,2011-03-09T12:00:00Z,26.4345,-81.9647,7.33,1111122 
SCCF RECON,ioos:station:SCCF:16:1,2011-03-09T13:00:00Z,26.4345,-81.9647,7.84,1111122 
SCCF RECON,ioos:station:SCCF:16:1,2011-03-09T14:00:00Z,26.4345,-81.9647,7.77,1111122 
SCCF RECON,ioos:station:SCCF:16:1,2011-03-09T15:00:00Z,26.4345,-81.9647,7.85,1111122 
SCCF RECON,ioos:station:SCCF:16:1,2011-03-09T16:00:00Z,26.4345,-81.9647,7.45,1111122 
SCCF RECON,ioos:station:SCCF:16:1,2011-03-09T17:00:00Z,26.4345,-81.9647,6.92,1111122 
SCCF RECON,ioos:station:SCCF:16:1,2011-03-09T18:00:00Z,26.4345,-81.9647,7.99,1111122 
SCCF RECON,ioos:station:SCCF:16:1,2011-03-09T19:00:00Z,26.4345,-81.9647,8.48,1111122 
SCCF RECON,ioos:station:SCCF:16:1,2011-03-09T20:00:00Z,26.4345,-81.9647,13.68,1111122 
SCCF RECON,ioos:station:SCCF:16:1,2011-03-09T21:00:00Z,26.4345,-81.9647,10.61,1111122 
SCCF RECON,ioos:station:SCCF:16:1,2011-03-09T22:00:00Z,26.4345,-81.9647,10.13,1111122 
SCCF RECON,ioos:station:SCCF:16:1,2011-03-09T23:00:00Z,26.4345,-81.9647,9.81,1111122 
SCCF RECON,ioos:station:SCCF:16:1,2011-03-10T00:00:00Z,26.4345,-81.9647,10.12,1111122 
SCCF RECON,ioos:station:SCCF:16:1,2011-03-10T01:00:00Z,26.4345,-81.9647,9.56,1111122 
SCCF RECON,ioos:station:SCCF:16:1,2011-03-10T02:00:00Z,26.4345,-81.9647,11.9,1111122 
SCCF RECON,ioos:station:SCCF:16:1,2011-03-10T03:00:00Z,26.4345,-81.9647,13.11,1111122 
SCCF RECON,ioos:station:SCCF:16:1,2011-03-10T04:00:00Z,26.4345,-81.9647,9.55,1111122 
SCCF RECON,ioos:station:SCCF:16:1,2011-03-10T05:00:00Z,26.4345,-81.9647,7.74,1111122 
SCCF RECON,ioos:station:SCCF:16:1,2011-03-10T06:00:00Z,26.4345,-81.9647,9.74,1111122 
SCCF RECON,ioos:station:SCCF:16:1,2011-03-10T07:00:00Z,26.4345,-81.9647,8.63,1111122 
SCCF RECON,ioos:station:SCCF:16:1,2011-03-10T08:00:00Z,26.4345,-81.9647,9.3,1111122 
SCCF RECON,ioos:station:SCCF:16:1,2011-03-10T09:00:00Z,26.4345,-81.9647,10.08,1111122 
SCCF RECON,ioos:station:SCCF:16:1,2011-03-10T10:00:00Z,26.4345,-81.9647,9.27,1111122 
SCCF RECON,ioos:station:SCCF:16:1,2011-03-10T11:00:00Z,26.4345,-81.9647,10.47,1111122 
SCCF RECON,ioos:station:SCCF:16:1,2011-03-10T12:00:00Z,26.4345,-81.9647,11.9,1111122 
SCCF RECON,ioos:station:SCCF:16:1,2011-03-10T13:00:00Z,26.4345,-81.9647,12.45,1111122 
SCCF RECON,ioos:station:SCCF:16:1,2011-03-10T14:00:00Z,26.4345,-81.9647,10.37,1111122 
SCCF RECON,ioos:station:SCCF:16:1,2011-03-10T15:00:00Z,26.4345,-81.9647,12.57,1111122 
SCCF RECON,ioos:station:SCCF:16:1,2011-03-10T16:00:00Z,26.4345,-81.9647,11.03,1111122 
SCCF RECON,ioos:station:SCCF:16:1,2011-03-10T17:00:00Z,26.4345,-81.9647,12.05,1111122 
SCCF RECON,ioos:station:SCCF:16:1,2011-03-10T18:00:00Z,26.4345,-81.9647,10.08,1111122 
SCCF RECON,ioos:station:SCCF:16:1,2011-03-10T19:00:00Z,26.4345,-81.9647,13.52,1111122 
SCCF RECON,ioos:station:SCCF:16:1,2011-03-10T20:00:00Z,26.4345,-81.9647,15.02,1111122 
SCCF RECON,ioos:station:SCCF:16:1,2011-03-10T21:00:00Z,26.4345,-81.9647,15.9,1111122 
SCCF RECON,ioos:station:SCCF:16:1,2011-03-10T22:00:00Z,26.4345,-81.9647,15.27,1111122 
SCCF RECON,ioos:station:SCCF:16:1,2011-03-10T23:00:00Z,26.4345,-81.9647,14.24,1111122 
SCCF RECON,ioos:station:SCCF:16:1,2011-03-11T00:00:00Z,26.4345,-81.9647,14.54,1111122 
SCCF RECON,ioos:station:SCCF:16:1,2011-03-11T01:00:00Z,26.4345,-81.9647,13.45,1111122 
SCCF RECON,ioos:station:SCCF:16:1,2011-03-11T02:00:00Z,26.4345,-81.9647,14.16,1111122 
SCCF RECON,ioos:station:SCCF:16:1,2011-03-11T03:00:00Z,26.4345,-81.9647,11.64,1111122 
SCCF RECON,ioos:station:SCCF:16:1,2011-03-11T04:00:00Z,26.4345,-81.9647,10.64,1111122 
SCCF RECON,ioos:station:SCCF:16:1,2011-03-11T05:00:00Z,26.4345,-81.9647,12.81,1111122 
SCCF RECON,ioos:station:SCCF:16:1,2011-03-11T06:00:00Z,26.4345,-81.9647,10.51,1111122 
SCCF RECON,ioos:station:SCCF:16:1,2011-03-11T07:00:00Z,26.4345,-81.9647,10.48,1111122 
SCCF RECON,ioos:station:SCCF:16:1,2011-03-11T08:00:00Z,26.4345,-81.9647,9.24,1111122 
SCCF RECON,ioos:station:SCCF:16:1,2011-03-11T09:00:00Z,26.4345,-81.9647,10.12,1111122 
SCCF RECON,ioos:station:SCCF:16:1,2011-03-11T10:00:00Z,26.4345,-81.9647,8.89,1111122 
SCCF RECON,ioos:station:SCCF:16:1,2011-03-11T11:00:00Z,26.4345,-81.9647,9.79,1111122 
SCCF RECON,ioos:station:SCCF:16:1,2011-03-11T12:00:00Z,26.4345,-81.9647,9.77,1111122 
SCCF RECON,ioos:station:SCCF:16:1,2011-03-11T13:00:00Z,26.4345,-81.9647,11.86,1111122 
SCCF RECON,ioos:station:SCCF:16:1,2011-03-11T14:00:00Z,26.4345,-81.9647,12.53,1111122 
SCCF RECON,ioos:station:SCCF:16:1,2011-03-11T15:00:00Z,26.4345,-81.9647,9.93,1111122 
SCCF RECON,ioos:station:SCCF:16:1,2011-03-11T16:00:00Z,26.4345,-81.9647,10.71,1111122 
SCCF RECON,ioos:station:SCCF:16:1,2011-03-11T17:00:00Z,26.4345,-81.9647,12.6,1111122 
SCCF RECON,ioos:station:SCCF:16:1,2011-03-11T18:00:00Z,26.4345,-81.9647,12.48,1111122 
SCCF RECON,ioos:station:SCCF:16:1,2011-03-11T19:00:00Z,26.4345,-81.9647,19.88,1111122 
SCCF RECON,ioos:station:SCCF:16:1,2011-03-11T20:00:00Z,26.4345,-81.9647,16.5,1111122 
SCCF RECON,ioos:station:SCCF:16:1,2011-03-11T21:00:00Z,26.4345,-81.9647,15.46,1111122 
SCCF RECON,ioos:station:SCCF:16:1,2011-03-11T22:00:00Z,26.4345,-81.9647,14.97,1111122 
SCCF RECON,ioos:station:SCCF:16:1,2011-03-11T23:00:00Z,26.4345,-81.9647,15.01,1111122 
SCCF RECON,ioos:station:SCCF:16:1,2011-03-12T00:00:00Z,26.4345,-81.9647,14.06,1111122 
SCCF RECON,ioos:station:SCCF:16:1,2011-03-12T01:00:00Z,26.4345,-81.9647,10.39,1111122 
SCCF RECON,ioos:station:SCCF:16:1,2011-03-12T02:00:00Z,26.4345,-81.9647,9.22,1111122 
SCCF RECON,ioos:station:SCCF:16:1,2011-03-12T03:00:00Z,26.4345,-81.9647,9.89,1111122 
SCCF RECON,ioos:station:SCCF:16:1,2011-03-12T04:00:00Z,26.4345,-81.9647,7.55,1111122 
SCCF RECON,ioos:station:SCCF:16:1,2011-03-12T05:00:00Z,26.4345,-81.9647,12.5,1111122 
SCCF RECON,ioos:station:SCCF:16:1,2011-03-12T06:00:00Z,26.4345,-81.9647,7.53,1111122 
SCCF RECON,ioos:station:SCCF:16:1,2011-03-12T07:00:00Z,26.4345,-81.9647,6.02,1111122 
SCCF RECON,ioos:station:SCCF:16:1,2011-03-12T08:00:00Z,26.4345,-81.9647,5.99,1111122 
SCCF RECON,ioos:station:SCCF:16:1,2011-03-12T09:00:00Z,26.4345,-81.9647,6.25,1111122 
SCCF RECON,ioos:station:SCCF:16:1,2011-03-12T10:00:00Z,26.4345,-81.9647,6.2,1111122 
SCCF RECON,ioos:station:SCCF:16:1,2011-03-12T11:00:00Z,26.4345,-81.9647,7.45,1111122 
SCCF RECON,ioos:station:SCCF:16:1,2011-03-12T12:00:00Z,26.4345,-81.9647,7.23,1111122 
SCCF RECON,ioos:station:SCCF:16:1,2011-03-12T13:00:00Z,26.4345,-81.9647,9.89,1111122 